Weerstation Grootegast  Weerstation Grootegast


15 daagse weersverwachting Roosendaal (NL)

  • Overzicht
  • Per uur
  • 15 dagen
  • Extra
  • Vergelijk
  • Kaarten
  • Dagkaart
  • Meer »
  • Info
  • Statistieken
  • Directe link
    Temp 6h Neerslag Wind  
 05:48     21:50    Daglengte: 16:02 Vandaag
08:00
16°
 
2
14:00
24°
 
3
20:00
23°
 
4
 05:50     21:48    Daglengte: 15:58 Morgen
02:00
15°
 
2
08:00
17°
 
1
14:00
26°
 
2
20:00
25°
 
4
 05:51     21:47    Daglengte: 15:56 Vrijdag 20 Jul
02:00
17°
 
2
08:00
18°
 
2
14:00
27°
 
2
20:00
24°
 
3
 05:52     21:46    Daglengte: 15:54 Zaterdag 21 Jul
02:00
19°
3.3 mm
2
Locatie info
Region: Noord-Brabant
Latitude: 51.5314°N
Longitude: 4.4575°E
4 masl
Postcode: 4701
Temp/Neerslag /Baro Onweer/Dauwpunt
    Temp Baro 1h Neerslag Dauwpunt Wind UV Bewolking  
 05:48     21:50    Daglengte: 16:02 Vandaag
07:00
14°
1018.1 hPa   11.1°
2
Windvlaag: 0.7 m/s
43%
08:00
16°
1018.3 hPa   11.5°
2
Windvlaag: 1 m/s
54%
09:00
18°
1018.4 hPa   12.2°
3
Windvlaag: 1.5 m/s
60%
10:00
20°
1018.4 hPa   12.7°
3
Windvlaag: 1.8 m/s
65%
11:00
21°
1018.5 hPa   12.8°
3
Windvlaag: 1.9 m/s
70%
12:00
22°
1018.5 hPa   11.8°
3
Windvlaag: 1.7 m/s
70%
13:00
23°
1018.5 hPa   11.5°
3
Windvlaag: 1.1 m/s
53%
14:00
24°
1018.2 hPa   11.5°
3
Windvlaag: 0.4 m/s
74%
15:00
24°
1018.1 hPa   11.3°
3
Windvlaag: 0.2 m/s
60%
16:00
24°
1018.0 hPa   11.5°
3
Windvlaag: -0.1 m/s
46%
17:00
24°
1017.9 hPa   11.8°
4
Windvlaag: -1.2 m/s
35%
18:00
24°
1017.8 hPa   11.7°
4
Windvlaag: -2 m/s
30%
19:00
24°
1017.9 hPa   11.3°
4
Windvlaag: -1.9 m/s
22%
20:00
23°
1017.9 hPa   11.0°
4
Windvlaag: -2.1 m/s
14%
21:00
22°
1018.1 hPa   11.1°
3
Windvlaag: -1.9 m/s
14%
22:00
20°
1018.5 hPa   11.7°
2
Windvlaag: -1.7 m/s
8%
23:00
18°
1018.7 hPa   12.0°
2
Windvlaag: -1.5 m/s
5%
 05:50     21:48    Daglengte: 15:58 Morgen
00:00
17°
1018.9 hPa   12.6°
2
Windvlaag: -1.4 m/s
4%
01:00
16°
1018.8 hPa   12.6°
2
Windvlaag: -1.1 m/s
2%
02:00
15°
1018.9 hPa   12.7°
2
Windvlaag: -0.8 m/s
2%
03:00
15°
1018.8 hPa   12.4°
2
Windvlaag: -0.8 m/s
1%
04:00
15°
1018.6 hPa   12.2°
1
Windvlaag: -0.6 m/s
7%
05:00
14°
1018.5 hPa   12.1°
1
Windvlaag: -0.3 m/s
2%
06:00
13°
1018.5 hPa   12.2°
1
Windvlaag: -0.5 m/s
0%
07:00
15°
1018.6 hPa   13.1°
2
Windvlaag: -0.4 m/s
7%
08:00
17°
1018.8 hPa   13.4°
1
Windvlaag: -1 m/s
2%
09:00
20°
1018.9 hPa   13.3°
2
Windvlaag: -1.2 m/s
2%
10:00
22°
1018.9 hPa   12.5°
2
Windvlaag: -1.6 m/s
1%
11:00
23°
1018.8 hPa   11.1°
2
Windvlaag: -2.2 m/s
17%
12:00
24°
1018.6 hPa   10.0°
2
Windvlaag: -2.7 m/s
27%
13:00
25°
1018.5 hPa   9.5°
2
Windvlaag: -2.9 m/s
39%
14:00
26°
1018.1 hPa   9.1°
2
Windvlaag: -2.8 m/s
58%
15:00
27°
Voelt als: 26.2°
1017.8 hPa   8.8°
2
Windvlaag: -3 m/s
59%
16:00
27°
Voelt als: 26.3°
1017.4 hPa   8.4°
2
Windvlaag: -3 m/s
68%
17:00
27°
Voelt als: 26.4°
1017.0 hPa   8.3°
2
Windvlaag: -2.8 m/s
66%
18:00
27°
Voelt als: 26.2°
1016.6 hPa   8.6°
3
Windvlaag: -2.2 m/s
47%
19:00
26°
1016.6 hPa   9.7°
4
Windvlaag: -2.2 m/s
19%
20:00
25°
1016.5 hPa   9.8°
4
Windvlaag: -3 m/s
10%
21:00
23°
1016.6 hPa   10.2°
4
Windvlaag: -3.4 m/s
12%
22:00
21°
1016.9 hPa   11.3°
3
Windvlaag: -3.1 m/s
22%
23:00
20°
1016.9 hPa   12.8°
2
Windvlaag: -2.3 m/s
36%
 05:51     21:47    Daglengte: 15:56 Vrijdag 20 Jul
00:00
19°
1016.9 hPa   12.5°
2
Windvlaag: -1.4 m/s
45%
01:00
18°
1016.7 hPa   12.4°
2
Windvlaag: -1 m/s
88%
02:00
17°
1016.2 hPa   12.4°
2
Windvlaag: -0.6 m/s
75%
03:00
16°
1015.8 hPa   12.1°
2
Windvlaag: -0.2 m/s
45%
04:00
16°
1015.5 hPa   11.7°
2
Windvlaag: -0.1 m/s
72%
05:00
15°
1015.1 hPa   11.6°
2
Windvlaag: -0.2 m/s
69%
06:00
15°
1014.9 hPa   11.9°
2
Windvlaag: -0.2 m/s
60%
07:00
16°
1014.7 hPa   11.9°
2
Windvlaag: -0.6 m/s
52%
08:00
18°
1014.7 hPa   12.1°
2
Windvlaag: -0.7 m/s
43%
09:00
20°
1014.6 hPa   12.2°
2
Windvlaag: -0.6 m/s
54%
10:00
22°
1014.5 hPa   12.3°
2
Windvlaag: -0.6 m/s
63%
11:00
24°
1014.4 hPa   12.4°
2
Windvlaag: -1.1 m/s
88%
12:00
25°
1014.3 hPa   11.6°
2
Windvlaag: -1.7 m/s
86%
13:00
26°
1014.0 hPa
13%
11.0°
2
Windvlaag: -1.7 m/s
60%
14:00
27°
Voelt als: 26.4°
1013.7 hPa
18%
10.6°
2
Windvlaag: -2 m/s
90%
15:00
27°
Voelt als: 26.5°
1013.1 hPa
29%
10.5°
2
Windvlaag: -1.5 m/s
86%
16:00
26°
1013.1 hPa
32%
12.8°
3
Windvlaag: -1.4 m/s
86%
17:00
26°
1012.7 hPa
90%
13.0°
3
Windvlaag: -1.2 m/s
82%
18:00
26°
1012.1 hPa
96%
12.5°
4
Windvlaag: -0.8 m/s
87%
19:00
25°
1011.8 hPa
80%
13.3°
4
Windvlaag: -0.7 m/s
87%
20:00
24°
1011.6 hPa
27%
13.8°
3
Windvlaag: -0.6 m/s
94%
21:00
23°
1011.7 hPa
84%
14.2°
3
Windvlaag: -1.1 m/s
92%
22:00
22°
1011.7 hPa 1.2 mm
99%
14.3°
3
Windvlaag: -1.3 m/s
94%
23:00
21°
1011.6 hPa
55%
14.5°
3
Windvlaag: -4.2 m/s
92%
 05:52     21:46    Daglengte: 15:54 Zaterdag 21 Jul
00:00
20°
1011.7 hPa
38%
14.7°
3
Windvlaag: -4.4 m/s
96%
01:00
20°
1011.5 hPa
50%
15.1°
3
Windvlaag: -3.4 m/s
96%
02:00
19°
1011.0 hPa 2.1 mm
52%
15.2°
2
Windvlaag: -1.4 m/s
83%
03:00
18°
1011.3 hPa 2.1 mm
97%
14.2°
2
Windvlaag: 8.5 m/s
87%
04:00
18°
1011.1 hPa 2.5 mm
98%
13.8°
2
Windvlaag: 8.5 m/s
84%
05:00
17°
1011.0 hPa 2.1 mm
92%
13.5°
2
Windvlaag: 7.6 m/s
76%
06:00
17°
1010.9 hPa
37%
13.3°
2
Windvlaag: 8 m/s
71%
Temp/Neerslag /Baro Onweer/Dauwpunt
    Temp Baro Neerslag Dauwpunt Wind Bewolking  
 05:48     21:50    Daglengte: 16:02 Vandaag
08:00
16°
1018.3 hPa   11.5°
2
54%
11:00
21°
1018.5 hPa   12.8°
3
70%
14:00
24°
1018.2 hPa   11.5°
3
74%
17:00
24°
1017.9 hPa   11.8°
4
35%
20:00
23°
1017.9 hPa   11.0°
4
14%
23:00
18°
1018.7 hPa   12.0°
2
5%
 05:50     21:48    Daglengte: 15:58 Morgen
02:00
15°
1018.9 hPa   12.7°
2
2%
05:00
14°
1018.5 hPa   12.1°
1
2%
08:00
17°
1018.8 hPa   13.4°
1
2%
11:00
23°
1018.8 hPa   11.1°
2
17%
14:00
26°
1018.1 hPa   9.1°
2
58%
17:00
27°
Voelt als: 26.4°
1017.0 hPa   8.3°
2
66%
20:00
25°
1016.5 hPa   9.8°
4
10%
23:00
20°
1016.9 hPa   12.8°
2
36%
 05:51     21:47    Daglengte: 15:56 Vrijdag 20 Jul
02:00
17°
1016.2 hPa   12.4°
2
75%
05:00
15°
1015.1 hPa   11.6°
2
69%
08:00
18°
1014.7 hPa   12.1°
2
43%
11:00
24°
1014.4 hPa   12.4°
2
88%
14:00
27°
Voelt als: 26.4°
1013.7 hPa   10.6°
2
90%
17:00
26°
1012.7 hPa   13.0°
3
82%
20:00
24°
1011.6 hPa   13.8°
3
94%
23:00
21°
1011.6 hPa 1.2 mm 14.5°
3
92%
 05:52     21:46    Daglengte: 15:54 Zaterdag 21 Jul
02:00
19°
1011.0 hPa 2.1 mm 15.2°
2
83%
05:00
17°
1011.0 hPa 6.7 mm 13.5°
2
76%
08:00
18°
1010.8 hPa   13.5°
2
58%
11:00
23°
1011.5 hPa 0.8 mm 13.3°
3
55%
14:00
26°
1011.7 hPa 2.7 mm 11.8°
3
57%
17:00
25°
1012.1 hPa 0.5 mm 12.3°
4
37%
20:00
23°
1012.5 hPa 0.5 mm 12.8°
5
17%
23:00
20°
1013.6 hPa   13.9°
4
33%
 05:54     21:45    Daglengte: 15:51 Zondag 22 Jul
02:00
17°
1014.7 hPa   14.1°
3
49%
05:00
17°
1015.4 hPa   14.1°
3
30%
08:00
17°
1016.1 hPa   14.1°
2
11%
11:00
21°
1016.1 hPa   13.5°
3
50%
14:00
25°
1016.1 hPa   11.1°
4
90%
17:00
24°
1016.1 hPa   11.5°
4
47%
20:00
23°
1016.0 hPa   11.9°
3
3%
23:00
20°
1017.0 hPa   13.5°
2
1%
 05:55     21:43    Daglengte: 15:48 Maandag 23 Jul
02:00
17°
1017.8 hPa   13.9°
1
0%
05:00
17°
1017.9 hPa   14.5°
1
6%
08:00
18°
1018.1 hPa   15.0°
1
12%
11:00
21°
1017.9 hPa   15.2°
1
52%
14:00
25°
1017.7 hPa   14.3°
2
92%
17:00
25°
1016.9 hPa   14.4°
2
54%
20:00
25°
1016.2 hPa   14.7°
3
16%
23:00
22°
1016.2 hPa   14.9°
2
8%
 05:56     21:42    Daglengte: 15:46 Dinsdag 24 Jul
02:00
19°
1016.0 hPa   14.6°
2
1%
05:00
19°
1015.2 hPa   14.6°
2
0%
08:00
19°
1014.5 hPa   14.7°
2
0%
11:00
25°
1013.6 hPa   14.4°
2
2%
14:00
30°
Voelt als: 28.7°
1012.6 hPa   11.1°
2
4%
17:00
30°
Voelt als: 28.6°
1011.5 hPa   11.7°
3
6%
20:00
29°
Voelt als: 28.3°
1010.5 hPa   12.5°
3
7%
23:00
26°
1010.7 hPa   14.0°
3
20%
 05:58     21:41    Daglengte: 15:43 Woensdag 25 Jul
02:00
22°
1010.8 hPa   14.4°
3
33%
05:00
22°
1010.6 hPa   14.9°
2
41%
08:00
22°
1010.4 hPa   15.3°
2
49%
14:00
29°
Voelt als: 28.9°
1010.0 hPa 0.2 mm 14.1°
2
37%
20:00
29°
Voelt als: 28.2°
1009.3 hPa 11.9 mm 13.1°
2
40%
 05:59     21:39    Daglengte: 15:40 Donderdag 26 Jul
02:00
21°
1009.9 hPa 0.3 mm 15.8°
2
27%
08:00
22°
1009.8 hPa   16.5°
1
16%
14:00
29°
Voelt als: 28.4°
1010.5 hPa 1.5 mm 14.0°
5
52%
20:00
24°
1011.9 hPa 1.3 mm 14.7°
5
74%
 06:01     21:38    Daglengte: 15:37 Vrijdag 27 Jul
02:00
19°
1013.5 hPa 1.7 mm 14.3°
4
10%
08:00
19°
1014.5 hPa 2.3 mm 15.5°
3
0%
14:00
25°
1015.9 hPa 0.4 mm 13.7°
6
22%
20:00
22°
1015.0 hPa   14.4°
4
1%
 06:02     21:36    Daglengte: 15:34 Zaterdag 28 Jul
02:00
17°
1017.4 hPa 0.1 mm 12.8°
1
21%
08:00
18°
1017.3 hPa   12.8°
1
16%
14:00
28°
Voelt als: 27.0°
1016.8 hPa   10.3°
0
16%
20:00
25°
1016.4 hPa 0.4 mm 11.2°
2
28%
 06:03     21:35    Daglengte: 15:32 Zondag 29 Jul
02:00
17°
1017.2 hPa   11.9°
1
23%
08:00
18°
1017.3 hPa 0.1 mm 12.2°
1
25%
14:00
27°
Voelt als: 26.8°
1017.1 hPa 0.1 mm 10.0°
0
30%
20:00
26°
1016.6 hPa 0.3 mm 10.6°
3
23%
 06:05     21:33    Daglengte: 15:28 Maandag 30 Jul
02:00
17°
1017.4 hPa   11.8°
2
23%
08:00
19°
1017.3 hPa   12.4°
2
23%
14:00
28°
Voelt als: 27.4°
1016.8 hPa 0.1 mm 11.8°
2
27%
20:00
26°
1016.3 hPa 0.9 mm 12.9°
4
36%
 06:06     21:32    Daglengte: 15:26 Dinsdag 31 Jul
02:00
18°
1017.5 hPa 0.2 mm 12.8°
2
21%
08:00
19°
1017.5 hPa 0.1 mm 13.3°
1
19%
14:00
28°
Voelt als: 27.5°
1017.1 hPa 0.2 mm 12.6°
2
23%
20:00
26°
1016.6 hPa   12.4°
4
33%
 06:08     21:30    Daglengte: 15:22 Woensdag 01 Aug
02:00
18°
1017.4 hPa 0.3 mm 13.1°
2
21%
08:00
19°
1017.1 hPa 0.2 mm 13.6°
1
19%
14:00
29°
Voelt als: 28.0°
1016.5 hPa 0.1 mm 11.7°
1
12%
20:00
27°
Voelt als: 26.8°
1015.5 hPa 0.1 mm 12.5°
3
31%
 06:09     21:28    Daglengte: 15:19 Donderdag 02 Aug
02:00
19°
1016.1 hPa 0.1 mm 13.6°
2
21%
  CAPE Lifted Index Hail Supercell Tornado SRH 3km CL BTM PRES CL TOP PRES Swiss DWD icon SMHI TS
 05:48     21:50    Daglengte: 16:02 Vandaag
07:00 0 J/kg 7.8 K 0 % 0 % 0 % 0 m²/s² 0 0 13.23 2
08:00 0 J/kg 7.5 K 0 % 0 % 0 % 0 m²/s² 0 0 13.23 3
09:00 0 J/kg 6.3 K 0 % 0 % 0 % 0 m²/s² 0 0 12.54 3
10:00 0 J/kg 5.9 K 0 % 0 % 0 % 0 m²/s² 0 0 11.99 3
11:00 0 J/kg 5.6 K 0 % 0 % 0 % 0 m²/s² 0 0 11.66 3
12:00 2 J/kg 5.6 K 0 % 0 % 0 % 0 m²/s² 0 0 11.51 3
13:00 5 J/kg 5.2 K 0 % 0 % 0 % 0 m²/s² 0 0 10.93 2
14:00 0 J/kg 4.5 K 0 % 0 % 0 % 0 m²/s² 0 0 10.23 2
15:00 20 J/kg 3.2 K 0 % 0 % 0 % 0 m²/s² 0 0 8.96 2
16:00 31 J/kg 2.3 K 0 % 0 % 0 % 0 m²/s² 0 0 8.06 1
17:00 26 J/kg 2.0 K 0 % 0 % 0 % 0 m²/s² 0 0 7.73 3
18:00 9 J/kg 2.1 K 0 % 0 % 0 % 0 m²/s² 0 0 8.01 2
19:00 1 J/kg 2.2 K 0 % 0 % 0 % 0 m²/s² 0 0 8.11 0
20:00 2 J/kg 2.8 K 0 % 0 % 0 % 0 m²/s² 0 0 8.71 1
21:00 0 J/kg 3.3 K 0 % 0 % 0 % 0 m²/s² 0 0 9.21 0
22:00 0 J/kg 3.3 K 0 % 0 % 0 % 0 m²/s² 0 0 8.88 1
23:00 0 J/kg 3.4 K 0 % 0 % 0 % 0 m²/s² 0 0 8.83 0
 05:50     21:48    Daglengte: 15:58 Morgen
00:00 0 J/kg 3.3 K 0 % 0 % 0 % 0 m²/s² 0 0 8.61 0
01:00 0 J/kg 3.4 K 0 % 0 % 0 % 0 m²/s² 0 0 8.71 0
02:00 0 J/kg 3.7 K 0 % 0 % 0 % 0 m²/s² 0 0 9.01 0
03:00 0 J/kg 4.3 K 0 % 0 % 0 % 0 m²/s² 0 0 9.61 0
04:00 0 J/kg 4.5 K 0 % 0 % 0 % 0 m²/s² 0 0 9.81 1
05:00 0 J/kg 4.5 K 0 % 0 % 0 % 0 m²/s² 0 0 9.66 1
06:00 0 J/kg 4.8 K 0 % 0 % 0 % 0 m²/s² 0 0 10.08 0
07:00 0 J/kg 5.1 K 0 % 0 % 0 % 0 m²/s² 0 0 10.68 0
08:00 0 J/kg 5.4 K 0 % 0 % 0 % 0 m²/s² 0 0 11.28 0
09:00 0 J/kg 5.6 K 0 % 0 % 0 % 0 m²/s² 0 0 12.02 0
10:00 0 J/kg 4.5 K 0 % 0 % 0 % 0 m²/s² 0 0 11.34 0
11:00 0 J/kg 4.3 K 0 % 0 % 0 % 0 m²/s² 0 0 11.59 0
12:00 0 J/kg 4.3 K 0 % 0 % 0 % 0 m²/s² 0 0 11.59 1
13:00 0 J/kg 3.9 K 0 % 0 % 0 % 0 m²/s² 0 0 11.43 2
14:00 0 J/kg 3.6 K 0 % 0 % 0 % 0 m²/s² 0 0 10.89 3
15:00 0 J/kg 3.3 K 0 % 0 % 0 % 0 m²/s² 0 0 10.59 0
16:00 0 J/kg 3.3 K 0 % 0 % 0 % 0 m²/s² 0 0 10.35 0
17:00 3 J/kg 2.8 K 0 % 0 % 0 % 0 m²/s² 0 0 9.61 3
18:00 0 J/kg 2.1 K 0 % 0 % 0 % 0 m²/s² 0 0 8.94 2
19:00 0 J/kg 2.6 K 0 % 0 % 0 % 0 m²/s² 0 0 9.23 0
20:00 0 J/kg 2.8 K 0 % 0 % 0 % 0 m²/s² 0 0 9.43 0
21:00 0 J/kg 2.4 K 0 % 0 % 0 % 0 m²/s² 0 0 9.06 0
22:00 0 J/kg 2.7 K 0 % 0 % 0 % 0 m²/s² 0 0 9.57 3
23:00 0 J/kg 2.7 K 0 % 0 % 0 % 0 m²/s² 0 0 9.33 3
 05:51     21:47    Daglengte: 15:56 Vrijdag 20 Jul
00:00 0 J/kg 3.2 K 0 % 0 % 0 % 0 m²/s² 0 0 9.44 3
01:00 0 J/kg 3.0 K 0 % 0 % 0 % 0 m²/s² 0 0 9.09 3
02:00 0 J/kg 3.0 K 0 % 0 % 0 % 0 m²/s² 0 0 8.94 3
03:00 0 J/kg 2.8 K 0 % 0 % 0 % 0 m²/s² 0 0 8.41 0
04:00 0 J/kg 2.2 K 0 % 0 % 0 % 0 m²/s² 0 0 7.51 3
05:00 0 J/kg 2.3 K 0 % 0 % 0 % 0 m²/s² 0 0 7.19 3
06:00 0 J/kg 2.1 K 0 % 0 % 0 % 0 m²/s² 0 0 7.02 3
07:00 0 J/kg 2.1 K 0 % 0 % 0 % 0 m²/s² 0 0 6.75 3
08:00 0 J/kg 2.3 K 0 % 0 % 0 % 0 m²/s² 0 0 6.62 3
09:00 0 J/kg 2.4 K 0 % 0 % 0 % 0 m²/s² 0 0 6.39 3
10:00 0 J/kg 2.6 K 0 % 0 % 0 % 0 m²/s² 0 0 5.93 3
11:00 0 J/kg 1.6 K 0 % 0 % 0 % 0 m²/s² 0 0 3.13 3
12:00 128 J/kg 0.8 K 0 % 0 % 0 % 0 m²/s² 0 0 1.22 3
13:00 144 J/kg 0.5 K 0 % 0 % 0 % 0 m²/s² 0 0 0.77 2
14:00 150 J/kg 0.4 K 0 % 0 % 0 % 0 m²/s² 0 0 0.49 3
15:00 101 J/kg 0.3 K 0 % 0 % 0 % 0 m²/s² 0 0 0.3 3
16:00 148 J/kg -0.2 K 0 % 0 % 0 % 0 m²/s² 0 0 -0.2 2
17:00 102 J/kg 0.3 K 0 % 0 % 0 % 0 m²/s² 0 0 0.3 80
18:00 60 J/kg 0.5 K 0 % 0 % 0 % 0 m²/s² 0 0 0.59 61
19:00 38 J/kg 0.3 K 0 % 0 % 0 % 0 m²/s² 0 0 0.39 3
20:00 69 J/kg -0.1 K 0 % 0 % 0 % 0 m²/s² 0 0 -0.1 3
21:00 11 J/kg 0.0 K 0 % 0 % 0 % 0 m²/s² 0 0 0.03 3
22:00 0 J/kg 0.6 K 0 % 0 % 0 % 0 m²/s² 0 0 0.6 61
23:00 0 J/kg 0.6 K 0 % 0 % 0 % 0 m²/s² 0 0 0.69 3
 05:52     21:46    Daglengte: 15:54 Zaterdag 21 Jul
00:00 25 J/kg 0.3 K 0 % 0 % 0 % 0 m²/s² 0 0 0.33 3
01:00 35 J/kg 0.6 K 0 % 0 % 0 % 0 m²/s² 0 0 0.6 3
02:00 24 J/kg 0.6 K 0 % 0 % 0 % 0 m²/s² 0 0 0.69 3
03:00 20 J/kg 0.6 K 0 % 0 % 0 % 0 m²/s² 0 0 0.96 3
04:00 0 J/kg 1.7 K 0 % 0 % 0 % 0 m²/s² 0 0 2 80
05:00 0 J/kg 2.8 K 0 % 0 % 0 % 0 m²/s² 0 0 2.98 3
06:00 0 J/kg 3.3 K 0 % 0 % 0 % 0 m²/s² 0 0 3.66 3
Temp Baro Wind Neerslag
  EWN Forecast EWN WRFDA DWD ICON FMI HIRLAM MET Norway GFS
 05:48     21:50    Daglengte: 16:02 Vandaag
08:00 15.9° 1018.3 hPa 2.1 m/s 0.0 mm 15.7° 1017.8 hPa 3.3 m/s 0.0 mm 15.7° 1018.8 hPa 2.5 m/s -2.0 mm 15.1° 1018.2 hPa 2.1 m/s 0.0 mm 16.7° 1018.0 hPa 2.1 m/s 0.0 mm 16.1° 1019.1 hPa 2.9 m/s
11:00 21.2° 1018.5 hPa 3.1 m/s 0.0 mm 21.1° 1017.9 hPa 3.1 m/s 0.0 mm 20.5° 1019.2 hPa 3.5 m/s 0.0 mm 21.9° 1018.2 hPa 3.6 m/s 0.0 mm 21.1° 1018.5 hPa 2.9 m/s 0.0 mm 21.3° 1019.3 hPa 3.2 m/s
14:00 23.8° 1018.2 hPa 3.2 m/s 0.0 mm 23.9° 1017.7 hPa 3.1 m/s 0.0 mm 23.7° 1018.4 hPa 3.9 m/s 0.0 mm 24.8° 1017.5 hPa 3.3 m/s 0.0 mm 22.8° 1018.4 hPa 2.1 m/s 0.0 mm 23.8° 1019.0 hPa 3.3 m/s
17:00 24.4° 1017.9 hPa 3.7 m/s 0.0 mm 24.3° 1017.4 hPa 3.8 m/s 0.0 mm 24.0° 1018.6 hPa 4.5 m/s 0.0 mm 25.2° 1016.9 hPa 4.5 m/s 0.0 mm 23.9° 1018.0 hPa 2.5 m/s 0.0 mm 24.7° 1018.8 hPa 4.2 m/s
20:00 22.8° 1017.9 hPa 3.9 m/s 0.0 mm 22.4° 1017.3 hPa 4.4 m/s 0.0 mm 22.0° 1018.1 hPa 3.7 m/s 0.0 mm 22.8° 1017.7 hPa 4.7 m/s 0.0 mm 22.8° 1017.9 hPa 3.5 m/s 0.0 mm 21.7° 1018.7 hPa 4.9 m/s
23:00 18.3° 1018.7 hPa 2.3 m/s 0.0 mm 16.0° 1018.5 hPa 2.8 m/s 0.0 mm 16.8° 1019.1 hPa 1.8 m/s 0.0 mm 18.6° 1018.9 hPa 2.6 m/s 0.0 mm 18.3° 1018.7 hPa 2.0 m/s 0.0 mm 16.6° 1020.0 hPa 2.7 m/s
 05:50     21:48    Daglengte: 15:58 Morgen
02:00 15.3° 1018.9 hPa 1.9 m/s 0.0 mm 13.8° 1018.5 hPa 2.8 m/s 0.0 mm 14.8° 1018.9 hPa 1.4 m/s 0.0 mm 14.9° 1019.0 hPa 1.6 m/s 0.0 mm 15.3° 1019.0 hPa 2.3 m/s 0.0 mm 17.4° 1020.0 hPa 2.2 m/s
05:00 13.7° 1018.5 hPa 1.2 m/s 0.0 mm 12.1° 1018.7 hPa 1.9 m/s 0.0 mm 13.5° 1018.5 hPa 0.8 m/s 0.0 mm 13.0° 1018.6 hPa 1.5 m/s 0.0 mm 13.6° 1018.5 hPa 1.0 m/s 0.0 mm 14.9° 1020.0 hPa 1.7 m/s
08:00 17.0° 1018.8 hPa 1.5 m/s 0.0 mm 16.7° 1018.4 hPa 1.3 m/s 0.0 mm 16.7° 1018.9 hPa 1.5 m/s 0.0 mm 15.7° 1019.0 hPa 1.9 m/s 0.0 mm 17.3° 1018.8 hPa 0.9 m/s 0.0 mm 17.8° 1019.9 hPa 1.3 m/s
11:00 23.4° 1018.8 hPa 2.2 m/s 0.0 mm 23.2° 1018.2 hPa 1.3 m/s 0.0 mm 22.7° 1019.3 hPa 2.8 m/s 0.0 mm 23.5° 1019.2 hPa 2.5 m/s 0.0 mm 23.4° 1018.7 hPa 1.5 m/s 0.0 mm 23.2° 1020.0 hPa 1.8 m/s
14:00 25.9° 1018.1 hPa 2.2 m/s 0.0 mm 26.1° 1017.3 hPa 1.6 m/s 0.0 mm 25.4° 1018.2 hPa 2.2 m/s 0.0 mm 26.3° 1018.4 hPa 2.5 m/s 0.0 mm 25.4° 1018.1 hPa 1.7 m/s 0.0 mm 26.9° 1018.9 hPa 1.5 m/s
17:00 27.0° 1017.0 hPa 2.3 m/s 0.0 mm 27.4° 1016.5 hPa 2.8 m/s 0.0 mm 25.9° 1017.2 hPa 2.1 m/s 0.0 mm 27.5° 1017.1 hPa 2.3 m/s 0.0 mm 26.3° 1017.0 hPa 2.2 m/s 0.0 mm 26.1° 1018.3 hPa 3.4 m/s
20:00 24.8° 1016.5 hPa 4.2 m/s 0.0 mm 24.6° 1015.9 hPa 5.8 m/s 0.0 mm 23.1° 1016.8 hPa 3.9 m/s 0.0 mm 25.8° 1016.5 hPa 4.0 m/s 0.0 mm 24.6° 1016.6 hPa 3.6 m/s 0.0 mm 25.2° 1017.7 hPa 3.1 m/s
23:00 19.5° 1016.9 hPa 2.5 m/s 0.0 mm 19.5° 1016.8 hPa 3.9 m/s 0.0 mm 17.3° 1016.4 hPa 2.1 m/s 0.0 mm 19.4° 1017.0 hPa 1.8 m/s 0.0 mm 19.8° 1018.3 hPa 3.9 m/s
 05:51     21:47    Daglengte: 15:56 Vrijdag 20 Jul
02:00 17.2° 1016.2 hPa 2.2 m/s 0.0 mm 16.9° 1015.5 hPa 4.0 m/s 0.0 mm 15.5° 1016.0 hPa 1.8 m/s 0.0 mm 17.1° 1016.3 hPa 2.0 m/s 0.0 mm 16.5° 1017.3 hPa 3.3 m/s
05:00 15.1° 1015.1 hPa 1.9 m/s 0.0 mm 13.9° 1015.0 hPa 2.7 m/s 0.0 mm 14.5° 1015.2 hPa 0.9 m/s 0.0 mm 14.8° 1015.1 hPa 2.0 m/s 0.0 mm 14.7° 1016.3 hPa 2.1 m/s
08:00 17.9° 1014.7 hPa 1.8 m/s 0.0 mm 17.8° 1014.1 hPa 2.6 m/s 0.0 mm 17.1° 1014.6 hPa 1.9 m/s 0.0 mm 17.8° 1015.0 hPa 1.1 m/s 0.0 mm 18.0° 1015.4 hPa 1.0 m/s
11:00 23.7° 1014.4 hPa 2.0 m/s 0.0 mm 23.3° 1013.3 hPa 4.1 m/s 0.0 mm 22.1° 1014.3 hPa 2.0 m/s 0.0 mm 23.9° 1014.5 hPa 1.4 m/s 0.0 mm 24.3° 1015.0 hPa 1.4 m/s
14:00 26.5° 1013.7 hPa 1.9 m/s 0.0 mm 25.9° 1012.7 hPa 2.3 m/s 0.0 mm 24.5° 1013.2 hPa 1.2 m/s 0.0 mm 27.0° 1014.0 hPa 1.9 m/s 0.0 mm 26.6° 1014.0 hPa 2.4 m/s
17:00 25.7° 1012.7 hPa 2.8 m/s 0.0 mm 20.4° 1013.0 hPa 1.1 m/s 9.3 mm 23.2° 1012.2 hPa 2.1 m/s 0.3 mm 26.2° 1012.9 hPa 3.3 m/s 0.0 mm 25.6° 1013.4 hPa 3.0 m/s
20:00 23.6° 1011.6 hPa 3.1 m/s 0.0 mm 21.0° 1011.5 hPa 2.8 m/s 17.0 mm 19.9° 1011.7 hPa 3.0 m/s 0.1 mm 23.7° 1012.2 hPa 3.6 m/s 0.0 mm 21.7° 1012.6 hPa 1.0 m/s
23:00 20.8° 1011.6 hPa 3.1 m/s 1.2 mm 18.5° 1011.8 hPa 1.1 m/s 17.0 mm 16.2° 1011.7 hPa 2.7 m/s 0.2 mm 21.4° 1012.0 hPa 3.2 m/s 18.6° 1012.8 hPa 2.2 m/s
 05:52     21:46    Daglengte: 15:54 Zaterdag 21 Jul
02:00 18.8° 1011.0 hPa 2.5 m/s 2.1 mm 17.1° 1011.2 hPa 1.4 m/s 17.5 mm 15.6° 1011.1 hPa 1.0 m/s 0.0 mm 19.0° 1011.7 hPa 2.7 m/s 17.9° 1012.6 hPa 2.1 m/s
05:00 17.4° 1011.0 hPa 2.2 m/s 6.7 mm 16.5° 1010.8 hPa 3.0 m/s 17.9 mm 14.8° 1010.4 hPa 1.2 m/s 1.1 mm 18.8° 1011.2 hPa 2.4 m/s 17.1° 1012.0 hPa 1.5 m/s
08:00 17.8° 1010.8 hPa 2.0 m/s 0.0 mm 17.1° 1011.6 hPa 2.9 m/s 18.3 mm 16.5° 1010.0 hPa 1.6 m/s 0.0 mm 18.6° 1010.8 hPa 2.0 m/s 18.4° 1012.3 hPa 3.2 m/s
11:00 23.3° 1011.5 hPa 2.5 m/s 0.8 mm 23.5° 1011.3 hPa 2.3 m/s 21.1° 1013.1 hPa 4.8 m/s 0.8 mm
14:00 25.6° 1011.7 hPa 2.8 m/s 2.7 mm 25.9° 1011.6 hPa 2.5 m/s 22.1° 1013.2 hPa 6.2 m/s 2.7 mm
17:00 24.5° 1012.1 hPa 4.1 m/s 0.5 mm 24.6° 1012.0 hPa 3.9 m/s 23.3° 1013.6 hPa 6.5 m/s 0.5 mm
20:00 23.2° 1012.5 hPa 5.3 m/s 0.5 mm 23.4° 1012.3 hPa 5.3 m/s 21.5° 1014.1 hPa 5.0 m/s 0.5 mm
23:00 20.0° 1013.6 hPa 4.1 m/s 0.0 mm 20.3° 1013.5 hPa 4.2 m/s 16.8° 1015.5 hPa 3.4 m/s 0.0 mm
 05:54     21:45    Daglengte: 15:51 Zondag 22 Jul
02:00 17.0° 1014.7 hPa 2.9 m/s 0.0 mm 17.2° 1014.6 hPa 3.0 m/s 15.2° 1016.3 hPa 2.3 m/s 0.0 mm
05:00 17.1° 1015.4 hPa 2.6 m/s 0.0 mm 17.4° 1015.3 hPa 2.7 m/s 14.1° 1016.4 hPa 1.2 m/s 0.0 mm
08:00 17.5° 1016.1 hPa 2.3 m/s 0.0 mm 17.5° 1016.0 hPa 2.4 m/s 17.1° 1017.3 hPa 1.3 m/s 0.0 mm
11:00 21.2° 1016.1 hPa 2.9 m/s 0.0 mm 21.2° 1016.0 hPa 3.0 m/s 21.5° 1017.4 hPa 2.9 m/s 0.0 mm
14:00 24.8° 1016.1 hPa 3.6 m/s 0.0 mm 24.9° 1016.0 hPa 3.5 m/s 24.1° 1017.1 hPa 4.6 m/s 0.0 mm
17:00 24.1° 1016.1 hPa 3.6 m/s 0.0 mm 24.1° 1016.0 hPa 3.5 m/s 24.2° 1017.2 hPa 4.9 m/s 0.0 mm
20:00 23.2° 1016.0 hPa 3.4 m/s 0.0 mm 23.3° 1015.9 hPa 3.4 m/s 22.0° 1017.6 hPa 3.7 m/s 0.0 mm
23:00 19.7° 1017.0 hPa 2.3 m/s 0.0 mm 20.0° 1016.8 hPa 2.4 m/s 16.9° 1018.8 hPa 1.8 m/s 0.0 mm
 05:55     21:43    Daglengte: 15:48 Maandag 23 Jul
02:00 16.6° 1017.8 hPa 1.3 m/s 0.0 mm 16.7° 1017.7 hPa 1.4 m/s 15.1° 1019.2 hPa 0.5 m/s 0.0 mm
05:00 16.9° 1017.9 hPa 1.2 m/s 0.0 mm 17.1° 1017.9 hPa 1.1 m/s 14.6° 1018.8 hPa 1.4 m/s 0.0 mm
08:00 17.6° 1018.1 hPa 1.0 m/s 0.0 mm 17.6° 1018.0 hPa 0.9 m/s 17.7° 1018.9 hPa 1.6 m/s 0.0 mm
11:00 21.3° 1017.9 hPa 1.4 m/s 0.0 mm 21.1° 1017.9 hPa 1.5 m/s 23.4° 1018.6 hPa 1.4 m/s 0.0 mm
14:00 24.9° 1017.7 hPa 1.8 m/s 0.0 mm 24.7° 1017.7 hPa 2.0 m/s 27.4° 1017.6 hPa 0.1 m/s 0.0 mm
17:00 25.3° 1016.9 hPa 2.3 m/s 0.0 mm 25.0° 1017.0 hPa 2.4 m/s 28.3° 1016.3 hPa 1.2 m/s 0.0 mm
20:00 25.5° 1016.2 hPa 2.6 m/s 0.0 mm 25.3° 1016.3 hPa 2.7 m/s 27.3° 1015.7 hPa 1.2 m/s 0.0 mm
23:00 22.0° 1016.2 hPa 2.5 m/s 0.0 mm 22.1° 1016.2 hPa 2.6 m/s 21.3° 1015.9 hPa 1.3 m/s 0.0 mm
 05:56     21:42    Daglengte: 15:46 Dinsdag 24 Jul
02:00 19.0° 1016.0 hPa 2.5 m/s 0.0 mm 18.9° 1016.1 hPa 2.5 m/s 19.8° 1015.2 hPa 2.1 m/s 0.0 mm
05:00 19.1° 1015.2 hPa 2.0 m/s 0.0 mm 19.1° 1015.4 hPa 2.0 m/s 18.5° 1014.1 hPa 2.3 m/s 0.0 mm
08:00 19.4° 1014.5 hPa 1.6 m/s 0.0 mm 19.3° 1014.6 hPa 1.5 m/s 20.8° 1013.9 hPa 2.6 m/s 0.0 mm
11:00 24.7° 1013.6 hPa 1.7 m/s 0.0 mm 24.6° 1013.7 hPa 1.5 m/s 26.8° 1013.1 hPa 3.4 m/s 0.0 mm
14:00 29.8° 1012.6 hPa 1.7 m/s 0.0 mm 29.8° 1012.7 hPa 1.5 m/s 30.1° 1011.6 hPa 4.1 m/s 0.0 mm
17:00 29.6° 1011.5 hPa 2.6 m/s 0.0 mm 29.5° 1011.7 hPa 2.5 m/s 31.2° 1010.2 hPa 4.1 m/s 0.0 mm
20:00 29.1° 1010.5 hPa 3.4 m/s 0.0 mm 29.1° 1010.6 hPa 3.5 m/s 28.7° 1009.7 hPa 2.7 m/s 0.0 mm
23:00 25.5° 1010.7 hPa 3.2 m/s 0.0 mm 25.7° 1010.8 hPa 3.3 m/s 23.8° 1009.9 hPa 2.6 m/s 0.0 mm
 05:58     21:41    Daglengte: 15:43 Woensdag 25 Jul
02:00 22.3° 1010.8 hPa 3.1 m/s 0.0 mm 22.3° 1010.9 hPa 3.1 m/s 21.9° 1009.4 hPa 2.9 m/s 0.0 mm
05:00 22.0° 1010.6 hPa 2.4 m/s 0.0 mm 22.0° 1010.8 hPa 2.4 m/s 22.4° 1008.6 hPa 3.3 m/s 0.0 mm
08:00 21.7° 1010.4 hPa 1.8 m/s 0.0 mm 21.6° 1010.6 hPa 1.6 m/s 23.0° 1008.1 hPa 3.6 m/s 0.0 mm
14:00 29.3° 1010.0 hPa 2.1 m/s 0.2 mm 29.5° 1010.3 hPa 1.8 m/s 27.5° 1006.8 hPa 5.3 m/s 0.2 mm
20:00 28.8° 1009.3 hPa 1.6 m/s 6.1 mm 29.4° 1009.4 hPa 1.3 m/s 22.1° 1007.7 hPa 5.0 m/s 6.1 mm
 05:59     21:39    Daglengte: 15:40 Donderdag 26 Jul
02:00 20.9° 1009.9 hPa 2.0 m/s 0.1 mm 21.4° 1009.9 hPa 1.6 m/s 15.7° 1009.5 hPa 6.5 m/s 0.1 mm
08:00 21.8° 1009.8 hPa 1.5 m/s 0.0 mm 22.3° 1009.7 hPa 0.8 m/s 16.4° 1010.4 hPa 8.9 m/s 0.1 mm
14:00 28.7° 1010.5 hPa 4.8 m/s 1.5 mm 29.4° 1010.4 hPa 4.5 m/s 20.8° 1011.9 hPa 8.0 m/s 1.5 mm
20:00 24.4° 1011.9 hPa 5.0 m/s 0.7 mm 24.7° 1011.8 hPa 4.8 m/s 20.7° 1012.8 hPa 7.2 m/s 0.7 mm
 06:01     21:38    Daglengte: 15:37 Vrijdag 27 Jul
02:00 19.2° 1013.5 hPa 3.5 m/s 1.6 mm 19.5° 1013.6 hPa 3.3 m/s 16.2° 1012.9 hPa 6.1 m/s 1.6 mm
08:00 19.3° 1014.5 hPa 3.1 m/s 1.3 mm 19.5° 1014.7 hPa 2.7 m/s 17.5° 1012.7 hPa 7.3 m/s 1.3 mm
14:00 25.2° 1015.9 hPa 5.5 m/s 0.3 mm 25.4° 1016.1 hPa 5.4 m/s 22.6° 1013.9 hPa 6.9 m/s 0.3 mm
20:00 22.4° 1015.0 hPa 3.7 m/s 0.0 mm 22.4° 1015.0 hPa 3.7 m/s 0.0 mm
 06:02     21:36    Daglengte: 15:34 Zaterdag 28 Jul
02:00 17.2° 1017.4 hPa 0.9 m/s 0.1 mm
08:00 18.3° 1017.3 hPa 0.8 m/s 0.0 mm
14:00 27.6° 1016.8 hPa 0.3 m/s 0.0 mm
20:00 25.4° 1016.4 hPa 2.4 m/s 0.4 mm
 06:03     21:35    Daglengte: 15:32 Zondag 29 Jul
02:00 17.2° 1017.2 hPa 0.9 m/s 0.0 mm
08:00 18.1° 1017.3 hPa 0.8 m/s 0.1 mm
14:00 27.3° 1017.1 hPa 0.1 m/s 0.1 mm
20:00 26.1° 1016.6 hPa 2.8 m/s 0.3 mm
 06:05     21:33    Daglengte: 15:28 Maandag 30 Jul
02:00 17.4° 1017.4 hPa 2.5 m/s 0.0 mm
08:00 18.6° 1017.3 hPa 2.0 m/s 0.0 mm
14:00 27.9° 1016.8 hPa 1.8 m/s 0.1 mm
20:00 26.1° 1016.3 hPa 3.8 m/s 0.9 mm
 06:06     21:32    Daglengte: 15:26 Dinsdag 31 Jul
02:00 18.0° 1017.5 hPa 2.0 m/s 0.2 mm
08:00 19.0° 1017.5 hPa 1.2 m/s 0.1 mm
14:00 27.9° 1017.1 hPa 1.7 m/s 0.2 mm
20:00 26.4° 1016.6 hPa 3.7 m/s 0.0 mm
 06:08     21:30    Daglengte: 15:22 Woensdag 01 Aug
02:00 17.8° 1017.4 hPa 2.1 m/s 0.3 mm
08:00 18.7° 1017.1 hPa 1.1 m/s 0.2 mm
14:00 28.8° 1016.5 hPa 1.4 m/s 0.1 mm
20:00 26.9° 1015.5 hPa 3.2 m/s 0.1 mm
 06:09     21:28    Daglengte: 15:19 Donderdag 02 Aug
02:00 18.6° 1016.1 hPa 1.9 m/s 0.1 mm
FMI Hirlam - 7.5 km EWN WRFDA - 12 km DWD ICON - 7 km GFS - 25 km Basiskaart






























































Updatetijd (Europe/Amsterdam) Resolutie Lengte Stap
FMI Hirlam 01:00, 07:00, 13:00, 19:00 7.5 km 49h 1h
EWN WRFDA 03:30, 09:30, 15:30, 21:30 12 km 73h 1h
DWD ICON 00:45, 06:45, 12:45, 18:45 7 km 75h 1h
GFS 03:15, 09:15, 15:15, 21:15 25 km 237h 3h
30+ mm
25-30 mm
20-25 mm
15-20 mm
10-15 mm
6-10 mm
4-6 mm
2-4 mm
1-2 mm
0.5-1 mm
0.2-0.5 mm
0.1-0.2 mm
30+ mm
25-30 mm
20-25 mm
15-20 mm
10-15 mm
6-10 mm
4-6 mm
2-4 mm
1-2 mm
0.5-1 mm
0.2-0.5 mm
0.1-0.2 mm
Sneeuwval
Natte sneeuw
Hagel
Vorst
30+ mm
25-30 mm
20-25 mm
15-20 mm
10-15 mm
6-10 mm
4-6 mm
2-4 mm
1-2 mm
0.5-1 mm
0.2-0.5 mm
0.1-0.2 mm
Sneeuwval
Natte sneeuw
Hagel
Vorst
Onweer
50 mm
40 mm
30 mm
26 mm
22 mm
18 mm
14 mm
10 mm
9 mm
8 mm
7 mm
6 mm
5 mm
4.5 mm
4 mm
3.5 mm
3 mm
2.5 mm
2 mm
1.5 mm
1 mm
0.8 mm
0.6 mm
0.4 mm
0.2 mm
0.05 mm
35°
30°
25°
20°
15°
10°
-5°
-10°
-15°
-20°
-25°
-30°
-35°
33> m/s
29 m/s
25 m/s
21 m/s
17 m/s
14 m/s
11 m/s
8 m/s
5 m/s
3 m/s
0 m/s
2600 J/kg
2400 J/kg
2200 J/kg
2000 J/kg
1800 J/kg
1600 J/kg
1400 J/kg
1200 J/kg
1000 J/kg
800 J/kg
600 J/kg
400 J/kg
200 J/kg
70 dBZ
65 dBZ
60 dBZ
55 dBZ
50 dBZ
45 dBZ
40 dBZ
35 dBZ
30 dBZ
25 dBZ
20 dBZ
15 dBZ
10 dBZ
5 dBZ
-1 K
-2 K
-3 K
-4 K
-5 K
-6 K
-7 K
-8 K
-9 K
950 m²/s²
900 m²/s²
850 m²/s²
800 m²/s²
750 m²/s²
700 m²/s²
650 m²/s²
600 m²/s²
550 m²/s²
500 m²/s²
450 m²/s²
400 m²/s²
350 m²/s²
300 m²/s²
250 m²/s²
200 m²/s²
150 m²/s²
100 m²/s²
46 m/s
44 m/s
42 m/s
40 m/s
38 m/s
36 m/s
34 m/s
32 m/s
30 m/s
28 m/s
26 m/s
24 m/s
22 m/s
20 m/s
16 m/s
12 m/s
8 m/s
4 m/s
30 m/s
28 m/s
26 m/s
24 m/s
22 m/s
20 m/s
18 m/s
16 m/s
14 m/s
12 m/s
10 m/s
8 m/s
6 m/s
4 m/s
2 m/s
3.0
2.8
2.6
2.4
2.2
2.0
1.8
1.6
1.4
1.2
1.0
0.8
0.6
0.4
0.2
15
14
13
12
11
10
9
8
7
6
5
4
3
2
1
90%
80%
70%
60%
50%
40%
30%
20%
10%
42
40
38
36
34
32
30
28
26
24
22
20
18
16
14
12
90+ cm
80-90 cm
70-80 cm
60-70 cm
50-60 cm
40-50 cm
30-40 cm
20-30 cm
10-20 cm
1-10 cm
Sneeuwval
Natte sneeuw
Regen
>120 mm
115 mm
110 mm
105 mm
100 mm
95 mm
90 mm
85 mm
80 mm
75 mm
70 mm
65 mm
60 mm
55 mm
50 mm
45 mm
45 mm
40 mm
35 mm
30 mm
25 mm
20 mm
15 mm
10 mm
5 mm
0.1 mm
960 hPa
880 hPa
800 hPa
720 hPa
640 hPa
560 hPa
584 gpdm
568 gpdm
552 gpdm
536 gpdm
520 gpdm
504 gpdm
488 gpdm
Extreem zwaar Noodweer Kans op onweer
15% 15% 5% 50% 15%

Dag




Kaart






35°
30°
25°
20°
15°
10°
-5°
-10°
-15°
-20°
-25°
-30°
-35°
33> m/s
29 m/s
25 m/s
21 m/s
17 m/s
14 m/s
11 m/s
8 m/s
5 m/s
3 m/s
0 m/s
Extreem zwaar Noodweer Kans op onweer
15% 15% 5% 50% 15%
>120 mm
115 mm
110 mm
105 mm
100 mm
95 mm
90 mm
85 mm
80 mm
75 mm
70 mm
65 mm
60 mm
55 mm
50 mm
45 mm
45 mm
40 mm
35 mm
30 mm
25 mm
20 mm
15 mm
10 mm
5 mm
0.1 mm
Onweer risico kaarten - De groene en gele kleur geeft de kans op onweer aan binnen 40 km van een punt. Oranje, rood en violet hebben hetzelfde niveau zoals je het ziet op estofex.org waaronder ook de kans op hagel en supercells.

dBZ - dBZ staat voor decibel ten opzichte van Z.

Cape - Convective available potential energy (CAPE), is de totale hoeveelheid energie die een luchtpakketje nodig heeft om zover mogelijk te stijgen in de atmosfeer.

K Index - K-Index wordt berekend door de Vertical Totals (VT) en het verschil tussen de 850 hPa temperatuur en de 700 hPa dauwpuntsdepressie (Tdd 700) bij elkaar op te tellen.

TT Index - Convectie index wordt gebruikt voor het voorspellen van zware buien of onweer.

WRF - The Weather Research and Forecasting (WRF) is een volgende generatie mesoscale numeriek weersvoorspelling systeem ontworpen om zowel de operationele planning als het atmosferisch onderzoek te dienen. WRF is a cooperatie tussen het National Center for Atmospheric Research (NCAR), National Centers for Environmental Prediction (NCEP), Forecast Systems Laboratory (FSL), Air Force Weather Agency (AFWA), Naval Research Laboratory, University of Oklahoma, en de Federal Aviation Administration (FAA). Deze software draait op onze server.

WRFDA - Een meer geavanceerde versie van WRF

Arome - Het 2.5 km Arome model. Verzorgd door het Noors Meteorologisch Instituut.

MET Norway - De proff-default 4km meteorological data is een beste keus selectie van meteorologische modellen gebruikt door met.no die zijn geïnterpoleerd tot een gemeenschappelijke dataset. Verzorgd door het Noorse Meteorologisch Instituut.

SMHI - Het Hirlam model verzorgd door het Zweeds meteorologisch instituut.

FMI - Het Hirlam model verzorgd door het Fins meteorologisch instituut. Dekking alleen Finland.

GFS - Het Global Forecast Systeem (GFS) is een wereldwijd numerieke weersvoorspelling computermodel, gerund door NOAA.

GEM-GDPS - Het GEM-GDPS is a wereldwijd numeriek weersvoorspelling computermodel verzorgd door het Canadees Meteorologisch Centrum.

Credits/Info: Dank aan Stefan Gofferje van sääkeskus.fi voor enkele formules van GrADS. Info: Wikipedia.

Betrouwbaarheid van de verwachting

NB! 2015-03-29: Rebuilding the accuracy-test!

EWNACC
Day 1 Good forecasts

Dag 1 Tmax

Dag 2 Tmax

Geladen verwachtingen TOP 50

Totaal geladen verwachtingen:
Plaats Latitude Longitude Verwachtingen Plaats Latitude Longitude Verwachtingen